THORAD AGENA D DEB, 4683

Orbit data source: Space-Track

THORAD AGENA D DEB, 4683 is space debris in SSO originally from a launch on Wed, 08 Apr 1970 UTC launched from the Air Force Western Test Range (AFWTR). Debris objects in space refer to the collection of defunct objects orbiting the Earth. Examples of debris include non-operational satellites, rocket bodies, and fragments generated from explosions, collisions, or faulty payload assembly.

Loading next visibility...
Identifier
4683, 1970-025BG
Orbit
SSO
Country
Flag of USUS
Related business
Manufacturer
Unknown
Mission
Spacecraft
Bus & Motor
Unknown
Mass
Unknown
Launch date (UTC)
1970-04-08 (56 years ago)
Launch vehicle
Unknown
Launch site
Air Force Western Test Range (AFWTR)
Object type
Payload
Rocket body
Debris
Shape & HBR
Unknown shape, 0.1 m
Radar Cross Section
Small (<0.1 m²)

Expand to show TLE details & history
Last TLE update: 18 hours ago

TLE from 18 hours ago
0 THORAD AGENA D DEB
1 04683U 70025BG  25287.03353697  .00000285  00000-0  63507-3 0  9994
2 04683 100.4472 318.8133 0121342 311.9715  77.8189 13.34855999694643
Epoch: 2025-10-14T00:48Z
TLE epoch observation values (Epoch: 2025-10-14T00:48:17.594Z)
Latitude
30.6345°
Longitude
-82.32452°
Altitude
1,114.051 km
Speed
7.307 km/s
True Right ascension
20h 50m 18s
True Declination
30° 29' 28"
Sunlit
Object was in daylight at epoch
Visualization orbit readout
Latitude
Unknown
Longitude
Unknown
Altitude
Unknown
Speed
Unknown
Apparent Right ascension
Unknown
Apparent Declination
Unknown
Sunlit
N/A
Visualization observer readout
Local Sidereal Time
12:57:02
Azimuth
Unknown
Elevation
Unknown
Doppler factor
Unknown
Orbital elements
Apogee altitude
1,216.918 km
Perigee altitude
1,034.808 km
Semi-major axis
7,504 km
Eccentricity
0.01213
Inclination
100.4472°
RAAN
318.8133°
Arg. of periapsis
311.9715°
True anomaly
79.18231°
Mean anomaly
77.8189°
Eccentric anomaly
78.50018°
Mean motion
3.3389 °/min
Orbital period
107.82 mins
BSTAR
0.00063507

Documentation

Showing up to 5 results
|